User: anonymous   Login
Location: Clyde
(45.1830°S, 169.3170°E)
Time: 14:19:22
(UTC+13:00)
Language:

Lacrosse 5 - Orbit

View from above orbital plane
View from above orbital plane
View from above satellite
View from above satellite

Ground track
Ground track

The orbit data is extracted from the following two-line orbital elements,

1 28646U 05016A   19316.22595104 0.00000000  00000-0  00000-0 0    09
2 28646  57.0151  90.2248 0005967 150.9082 209.0918 14.51895701    04
Epoch (UTC): 12 November 2019 05:25:22
Eccentricity: 0.0005967
inclination: 57.0151°
perigee height: 715 km
apogee height: 724 km
right ascension of ascending node: 90.2248°
argument of perigee: 150.9082°
revolutions per day: 14.51895701
mean anomaly at epoch: 209.0918°
orbit number at epoch: 0

The dashed part of the orbit path shows where the satellite is in the earth's shadow,  

DLR